Location: Holy Name Church
(43.0533°N, 92.9544°W)
Time: 01:07:54
(UTC+00:00)

Daily predictions for brighter satellites

Satellite Brightness Start Highest point End
(mag) Time Altitude Azimuth Time Altitude Azimuth Time Altitude Azimuth
CZ-4 R/B 4.4 00:02:12 10° SSE 00:06:04 54° ENE 00:09:58 10° N
MOS 1 Rocket 2.9 00:03:37 10° SSE 00:07:49 66° ENE 00:12:04 10° N
Cosmos 1606 3.4 00:06:26 10° SSW 00:08:59 37° W 00:11:34 10° N
IRS-P3 4.2 00:03:46 10° SSE 00:09:06 85° WSW 00:14:28 10° NNW
ARIANE 6 FM1 Upper Stage 3.5 00:09:04 10° WSW 00:12:55 44° NW 00:16:28 12° NNE
Cosmos 909 Rocket 4.2 00:07:02 10° NW 00:13:20 78° WSW 00:19:54 10° SSE
Cosmos 2016 Rocket 4.0 00:07:59 10° S 00:14:13 86° E 00:20:34 10° N
CZ-2D R/B 3.3 00:15:29 10° SSE 00:19:27 68° ENE 00:23:32 10° N
SPOT 1/Viking Rocket 3.4 00:17:35 10° SSE 00:22:41 72° ENE 00:27:51 10° N
Cosmos 1782 Rocket 3.5 00:18:52 10° S 00:23:13 63° E 00:27:38 10° NNE
Tiangong -2.0 00:20:27 10° W 00:23:37 66° S 00:24:28 42° ESE
ARIANE 5 R/B 3.9 00:20:15 10° S 00:24:56 41° W 00:29:39 10° NNW
IRAS Rocket 4.1 00:22:27 10° SSE 00:28:02 76° ENE 00:33:37 10° NNW
Cosmos 1844 Rocket 4.2 00:26:26 10° WSW 00:31:26 34° NW 00:36:28 10° N
SKYMED 2 3.6 00:27:36 10° N 00:31:58 80° WNW 00:36:17 10° SSW
COSMO-SKYMED 1 2.3 00:28:52 10° NNE 00:33:00 75° ESE 00:37:06 10° S
SL-4 R/B 2.6 00:29:52 10° NW 00:33:03 31° NNE 00:33:09 31° NNE
Cosmos 2061 Rocket 3.9 00:27:23 10° S 00:33:44 81° E 00:40:04 10° N
Cosmos 1140 Rocket 3.7 00:29:52 10° S 00:34:47 45° ESE 00:36:52 30° NE
SL-19 R/B 4.0 00:30:01 10° SSE 00:35:20 73° ENE 00:40:33 10° N
Geosat 3.9 00:31:47 10° SSE 00:36:47 89° WSW 00:41:49 10° NNW
Cosmos 1833 Rocket 2.9 00:37:05 10° NNW 00:42:34 48° ENE 00:44:22 36° ESE
Cosmos 1300 Rocket 3.8 00:39:44 10° SSW 00:44:07 69° W 00:48:31 10° N
Cosmos 1975 Rocket 2.9 00:42:19 10° N 00:46:36 66° E 00:50:55 10° SSE
Cosmos 1441 Rocket 3.6 00:44:42 10° NNW 00:47:57 52° W 00:51:13 10° S
ATLAS 5 CENTAUR R/B 3.1 00:47:03 10° NNW 00:49:25 23° NNE 00:49:25 23° NNE
Resurs 01 Rocket 3.2 00:58:12 22° N 00:58:12 22° N 00:59:58 10° N
Cosmos 1891 Rocket 4.4 00:55:00 10° S 01:01:19 69° E 01:07:45 10° NNE
Cosmos 2084 Rocket 4.3 01:01:38 10° SSW 01:04:21 37° S 01:04:21 37° S
NOSS 3-4 (A) 4.5 01:11:15 10° NW 01:18:07 57° WSW 01:26:06 10° SSE
NOSS 3-4 (C) 4.4 01:11:19 10° NW 01:18:12 58° WSW 01:26:10 10° SSE
Cosmos 2082 Rocket 4.1 01:22:39 10° N 01:24:13 17° N 01:24:13 17° N
ATLAS CENTAUR R/B 3.3 01:25:38 10° W 01:27:55 21° WNW 01:27:55 21° WNW
Cosmos 2278 Rocket 4.0 01:23:51 10° S 01:25:12 17° S 01:25:12 17° S
USA 281 3.2 01:39:32 57° S 01:41:01 80° WSW 01:47:39 10° NNW
CZ-4C R/B 4.1 01:38:38 10° WNW 01:41:58 19° NNW 01:43:35 16° N
SL-12 R/B(2) 4.1 01:34:30 10° SSW 01:42:17 84° ESE 01:44:53 52° NE
Cosmos 1943 Rocket 4.3 02:00:52 10° SSW 02:02:00 16° SSW 02:02:00 16° SSW
ACS3 Solar Sail 3.9 08:58:30 10° NNE 09:00:18 19° NE 09:00:18 19° NE
USA 234 4.2 09:15:47 10° E 09:20:57 43° NE 09:20:57 43° NE
Cosmos 2219 Rocket 3.8 09:42:01 28° NNE 09:42:01 28° NNE 09:44:39 10° NNE
NOSS 3-1 (C) 4.5 09:49:30 32° E 09:49:30 32° E 09:53:01 10° NE
ADEOS Rocket 4.0 09:42:16 10° NNE 09:46:25 43° N 09:46:25 43° N
COSMOS 2428 4.3 09:47:51 24° SE 09:50:02 32° ESE 09:54:59 10° NE
Cosmos 1727 Rocket 4.2 10:07:44 10° S 10:13:51 69° E 10:20:03 10° NNE
Cosmos 2278 Rocket 3.9 10:17:17 11° N 10:21:59 30° NE 10:26:54 10° ESE
Cosmos 2333 Rocket 4.1 10:27:38 16° N 10:27:38 16° N 10:29:12 10° N
Cosmos 2237 Rocket 4.3 10:21:08 10° SSE 10:25:40 25° ESE 10:30:13 10° NE
USA 267 3.4 10:22:51 10° NE 10:29:09 53° NNW 10:29:41 52° NW
NOSS 3-1 (A) 4.3 10:29:28 16° S 10:32:32 35° ESE 10:37:16 10° NE
COSMOS 2455 4.2 10:37:41 24° NNW 10:37:41 24° NNW 10:41:05 10° NNE
Cosmos 2173 Rocket 4.1 10:31:27 10° N 10:37:33 71° E 10:43:36 10° SSE
Cosmos 44 Rocket 3.8 10:39:36 37° N 10:41:29 60° NE 10:46:34 10° SE
Cosmos 2360 Rocket 3.9 10:46:13 18° NNW 10:46:13 18° NNW 10:48:24 10° N
Cosmos 2322 Rocket 4.0 10:46:46 17° NNW 10:46:46 17° NNW 10:48:39 10° N
Cosmos 1908 Rocket 4.4 10:41:31 10° N 10:45:51 49° ENE 10:50:08 10° SSE
Cosmos 1153 Rocket 4.4 10:40:37 10° NNW 10:46:41 60° W 10:52:47 10° S
ACS3 Solar Sail 3.0 10:41:39 10° N 10:44:27 24° NNW 10:44:27 24° NNW
Gbstr 26 Del rocket 3.2 10:47:30 68° WNW 10:47:58 74° NNW 10:53:43 10° NE
Cosmos 1000 Rocket 4.4 10:42:14 10° S 10:48:32 85° W 10:54:54 10° N
Meteor 2-5 Rocket 4.4 10:43:06 10° S 10:48:53 59° E 10:54:38 10° NNE
SL-16 R/B 4.4 10:53:26 10° NNW 10:53:26 10° NNW 10:53:29 10° NNW
Cosmos 2123 Rocket 4.1 10:48:58 10° S 10:55:10 76° E 11:01:22 10° N
PAYLOAD A 4.1 10:52:19 10° N 10:57:38 59° WNW 11:00:42 25° SW
Cosmos 1943 Rocket 2.7 10:52:28 11° NNW 10:57:48 55° ENE 11:03:10 10° SE
CZ-2C R/B 2.7 10:53:56 10° N 10:58:22 46° WNW 10:58:22 46° WNW
SJ 16-02 4.2 10:57:32 10° NNE 10:59:25 12° NE 11:01:17 10° E
Cosmos 1140 Rocket 3.4 10:55:53 20° NNW 10:59:26 88° ENE 11:04:32 10° SSE
ARGOS 3.5 10:57:11 10° N 11:02:07 41° WNW 11:02:07 41° WNW
USA 234 3.2 10:58:17 10° SE 11:04:47 66° SW 11:08:18 29° WNW
Cosmos 2016 Rocket 4.2 11:02:34 10° N 11:08:58 74° E 11:15:18 10° SSE
Meteor 2-21 Rocket 4.4 11:04:43 10° S 11:10:52 86° W 11:17:00 10° N
Iridium 4 Rocket 3.4 11:07:06 10° N 11:11:23 64° E 11:15:28 10° SSE
NOSS 2-1 (C) 4.1 11:18:33 26° NNW 11:18:33 26° NNW 11:20:23 10° NNE
NOSS 2-1 (D) 4.3 11:22:23 22° NNW 11:22:23 22° NNW 11:24:02 10° NNE
Timation 2 Rocket 4.0 11:15:19 10° NNW 11:21:58 77° WSW 11:28:18 10° SSE
COSMO-SKYMED 1 3.1 11:18:44 10° SSE 11:22:45 55° ENE 11:26:47 10° N
IRS-1D 3.3 11:18:26 10° NNE 11:23:25 84° WNW 11:28:20 10° SSW
Cosmos 2219 Rocket 3.5 11:23:45 20° NW 11:23:45 20° NW 11:27:37 10° N
SL-08 RB Rocket 4.4 11:20:37 10° N 11:24:34 30° WNW 11:24:34 30° WNW
USA 276 1.7 11:27:18 58° SW 11:27:21 58° SSW 11:30:04 10° SE
SKYMED 2 3.5 11:23:04 10° SSE 11:27:24 89° E 11:31:47 10° NNW
Cosmos 2061 Rocket 4.3 11:24:07 10° N 11:30:19 71° E 11:36:29 10° SSE
Cosmos 1328 4.0 11:29:37 24° SW 11:31:14 36° WNW 11:34:39 10° N
Cosmos 2100 Rocket 4.3 11:26:51 10° NNW 11:32:32 41° W 11:38:15 10° SSW
COSMOS 2428 3.1 11:29:57 16° WSW 11:34:06 40° WNW 11:39:28 10° NNE
NOSS 0 Rocket 3.9 11:32:41 10° SW 11:38:44 60° WNW 11:44:50 10° NNE
NOSS 3-1 (C) 3.8 11:36:52 23° W 11:38:54 31° NW 11:43:58 10° NNE
Cosmos 2322 4.4 11:38:06 18° WSW 11:41:26 31° NW 11:46:27 10° N
Cosmos 407 Rocket 3.3 11:37:05 10° NNW 11:42:11 75° WSW 11:47:15 10° SSE
Cosmos 1939 Rocket 3.8 11:39:19 10° NNW 11:42:27 24° WNW 11:43:13 22° W
Cosmos 1703 Rocket 4.0 11:40:07 10° SW 11:44:09 37° WNW 11:48:14 10° N
BlueWalker 3 2.1 11:42:58 24° WNW 11:44:47 49° SW 11:48:17 10° SSE
Helios 1A Rocket 2.5 11:43:23 10° S 11:46:41 51° W 11:50:01 10° NNW
Cosmos 1980 3.7 11:47:30 10° SW 11:53:04 60° WNW 11:58:41 10° NNE
USA 59 Rocket 1.3 11:53:47 13° NW 11:53:47 13° NW 11:55:00 10° NNW
